Location: Bremen
(53.0793°N, 8.8017°E)
Time: 03:52:37
(UTC+01:00)

Transit 2A - All Passes

Search period start: 30 November 2021 00:00
Search period end: 10 December 2021 00:00
Orbit: 591 x 967 km, 66.7° (Epoch: 29 November)

Date Brightness Start Highest point End Pass type
(mag) Time Alt. Az. Time Alt. Az. Time Alt. Az.
30 Nov - 00:16:42 10° SE 00:20:25 18° ESE 00:24:19 10° ENE night (unlit)
30 Nov - 01:56:55 10° SSW 02:02:39 76° SE 02:08:54 10° NE visible
30 Nov - 03:40:58 10° W 03:46:30 38° NNW 03:52:22 10° NE visible
30 Nov - 05:26:33 10° WNW 05:31:28 24° N 05:36:33 10° NE visible
30 Nov - 07:11:15 10° NW 07:16:43 29° NNE 07:22:11 10° E visible
30 Nov - 08:54:46 10° NW 09:01:09 64° NE 09:07:24 10° SE daylight
30 Nov - 10:38:24 10° NW 10:44:15 38° WSW 10:49:55 10° S daylight
30 Nov - 23:44:05 10° SE 23:46:33 13° E 23:49:05 10° ENE night (unlit)
01 Dec - 01:22:52 10° SSW 01:28:29 59° ESE 01:34:36 10° NE visible
01 Dec - 03:06:22 10° WSW 03:12:02 45° NW 03:18:06 10° NE visible
01 Dec - 04:51:52 10° WNW 04:56:51 25° N 05:02:01 10° NE visible
01 Dec - 06:36:52 10° NW 06:42:08 26° NNE 06:47:26 10° ENE visible
01 Dec - 08:20:31 10° NW 08:26:47 53° NE 08:32:57 10° ESE daylight
01 Dec - 10:04:01 10° NW 10:10:10 50° WSW 10:16:07 10° SSE daylight
01 Dec - 11:50:22 10° W 11:52:00 11° W 11:53:38 10° WSW daylight
02 Dec - 00:48:58 10° S 00:54:22 45° ESE 01:00:15 10° NE visible
02 Dec - 02:31:51 10° WSW 02:37:38 54° NW 02:43:50 10° NE visible
02 Dec - 04:17:09 10° WNW 04:22:15 26° NNW 04:27:34 10° NE visible
02 Dec - 06:02:25 10° NW 06:07:31 25° N 06:12:41 10° ENE visible
02 Dec - 07:46:16 10° NW 07:52:22 44° NE 07:58:24 10° ESE daylight
02 Dec - 09:29:40 10° NW 09:36:01 64° WSW 09:42:10 10° SSE daylight
02 Dec - 11:14:36 10° WNW 11:18:10 16° WSW 11:21:39 10° SW daylight
03 Dec - 00:15:14 10° S 00:20:19 34° ESE 00:25:49 10° NE night (unlit)
03 Dec - 01:57:26 10° SW 02:03:15 66° NW 02:09:34 10° NE visible
03 Dec - 03:42:26 10° W 03:47:41 29° NNW 03:53:09 10° NE visible
03 Dec - 05:27:54 10° NW 05:32:54 24° N 05:37:59 10° ENE visible
03 Dec - 07:12:00 10° NW 07:17:54 38° NNE 07:23:46 10° E visible
03 Dec - 08:55:23 10° NW 09:01:49 81° SW 09:08:04 10° SSE daylight
03 Dec - 10:39:41 10° WNW 10:44:15 21° WSW 10:48:44 10° SSW daylight
03 Dec - 23:41:43 10° SSE 23:46:20 26° ESE 23:51:17 10° NE night (unlit)
04 Dec - 01:23:08 10° SW 01:28:58 82° NW 01:35:19 10° NE visible
04 Dec - 03:07:44 10° W 03:13:08 32° NNW 03:18:48 10° NE visible
04 Dec - 04:53:19 10° NW 04:58:16 24° N 05:03:19 10° NE visible
04 Dec - 06:37:41 10° NW 06:43:24 33° NNE 06:49:05 10° E visible
04 Dec - 08:21:07 10° NW 08:27:35 81° NE 08:33:50 10° SE daylight
04 Dec - 10:05:02 10° NW 10:10:18 28° WSW 10:15:25 10° SSW daylight
04 Dec - 23:08:27 10° SSE 23:12:25 19° ESE 23:16:34 10° ENE night (unlit)
05 Dec - 00:48:55 10° SSW 00:54:43 80° SE 01:01:02 10° NE visible
05 Dec - 02:33:04 10° W 02:38:37 37° NNW 02:44:29 10° NE visible
05 Dec - 04:18:41 10° WNW 04:23:38 24° N 04:28:42 10° NE visible
05 Dec - 06:03:21 10° NW 06:08:51 29° NNE 06:14:21 10° E visible
05 Dec - 07:46:52 10° NW 07:53:16 66° NE 07:59:30 10° SE daylight
05 Dec - 09:30:32 10° NW 09:36:18 36° WSW 09:41:52 10° S daylight
05 Dec - 22:35:41 10° SE 22:38:32 14° E 22:41:30 10° ENE night (unlit)
06 Dec - 00:14:50 10° SSW 00:20:32 62° ESE 00:26:44 10° NE night (unlit)
06 Dec - 01:58:27 10° WSW 02:04:09 43° NW 02:10:13 10° NE visible
06 Dec - 03:44:00 10° WNW 03:49:00 25° N 03:54:10 10° NE visible
06 Dec - 05:28:58 10° NW 05:34:16 27° NNE 05:39:36 10° ENE visible
06 Dec - 07:12:36 10° NW 07:18:55 54° NE 07:25:04 10° ESE visible
06 Dec - 08:56:08 10° NW 09:02:14 47° WSW 09:08:06 10° S daylight
06 Dec - 10:43:23 10° W 10:44:00 10° W 10:44:36 10° WSW daylight
06 Dec - 23:40:54 10° S 23:46:25 48° ESE 23:52:23 10° NE night (unlit)
07 Dec - 01:23:56 10° WSW 01:29:44 52° NW 01:35:57 10° NE visible
07 Dec - 03:09:17 10° WNW 03:14:25 26° NNW 03:19:42 10° NE visible
07 Dec - 04:54:31 10° NW 04:59:40 25° N 05:04:52 10° ENE visible
07 Dec - 06:38:21 10° NW 06:44:30 45° NE 06:50:32 10° ESE visible
07 Dec - 08:21:47 10° NW 08:28:06 61° WSW 08:34:11 10° SSE daylight
07 Dec - 10:06:54 10° WNW 10:10:10 15° W 10:13:22 10° SW daylight
07 Dec - 23:07:07 10° S 23:12:21 36° ESE 23:17:59 10° NE night (unlit)
08 Dec - 00:49:29 10° SW 00:55:21 64° NW 01:01:41 10° NE visible
08 Dec - 02:34:33 10° WNW 02:39:49 29° NNW 02:45:18 10° NE visible
08 Dec - 04:20:01 10° NW 04:25:04 24° N 04:30:09 10° ENE visible
08 Dec - 06:04:04 10° NW 06:10:03 39° NNE 06:15:55 10° E visible
08 Dec - 07:47:29 10° NW 07:53:55 78° SW 08:00:06 10° SSE daylight
08 Dec - 09:31:53 10° WNW 09:36:17 20° WSW 09:40:33 10° SSW daylight
08 Dec - 22:33:33 10° SSE 22:38:21 27° ESE 22:43:28 10° NE night (unlit)
09 Dec - 00:15:09 10° SW 00:21:03 79° NW 00:27:26 10° NE night (unlit)
09 Dec - 01:59:50 10° W 02:05:16 32° NNW 02:10:56 10° NE visible
09 Dec - 03:45:27 10° NW 03:50:26 24° N 03:55:29 10° NE visible
09 Dec - 05:29:47 10° NW 05:35:32 34° NNE 05:41:14 10° E visible
09 Dec - 07:13:12 10° NW 07:19:41 85° NE 07:25:54 10° SE visible
09 Dec - 08:57:12 10° NW 09:02:21 26° WSW 09:07:19 10° SSW daylight
09 Dec - 22:00:14 10° SSE 22:04:24 21° ESE 22:08:49 10° ENE night (unlit)
09 Dec - 23:40:55 10° SW 23:46:48 83° SE 23:53:09 10° NE night (unlit)
